Weather History for Du Bois, PA

Change the Weather History Date:

Wednesday, September 3, 2014

  Actual Average Record
Temperature  
Mean Temperature 68 °F 64 °F  
Max Temperature 77 °F 75 °F 88 °F (1973)
Min Temperature 59 °F 54 °F 40 °F (1976)
Degree Days  
Heating Degree Days 0 3  
Month to date heating degree days 0 7  
Since 1 July heating degree days 72 69  
Cooling Degree Days 3 2  
Month to date cooling degree days 18 6  
Year to date cooling degree days 393 337  
Growing Degree Days 18 (Base 50)    
Moisture  
Dew Point 61 °F    
Average Humidity 77    
Maximum Humidity 100    
Minimum Humidity 54    
Precipitation  
Precipitation 0.00 in 0.13 in 2.49 in (1966)
Month to date precipitation 0.36 0.38  
Sea Level Pressure  
Sea Level Pressure 30.06 in    
Wind  
Wind Speed 3 mph (West)    
Max Wind Speed 8 mph    
Max Gust Speed 11 mph    
Visibility 5 miles    
Events Fog    
T = Trace of Precipitation, MM = Missing Value Source: NWS Daily Summary

Daily Weather History Graph

Daily Weather History Graph

Search for Another Location

Airport:

Trip Planner

Search our weather history database for the weather conditions in past years. The results will help you decide how hot, cold, wet, or windy it might be!

Date:

Astronomy

Sep. 03, 2014 Rise Set
Actual Time 6:44 AM EDT 7:45 PM EDT
Civil Twilight 6:15 AM EDT 8:13 PM EDT
Nautical Twilight 5:42 AM EDT 8:46 PM EDT
Astronomical Twilight 5:07 AM EDT 9:21 PM EDT
Moon 3:27 PM EDT (9/3) 12:34 AM EDT (9/3)
Length of Visible Light 13h 57m
Length of Day
13h 00m
Waxing Gibbous, 63% of the Moon is Illuminated
Sep 3
Waxing Gibbous
Sep 8
Full
Sep 15
Last Quarter
Sep 24
New
Oct 1
First Quarter

Hourly Weather History & Observations

Time (EDT) Temp. Dew Point Humidity Pressure Visibility Wind Dir Wind Speed Gust Speed Precip Events Conditions
12:49 AM 64.4 °F 62.6 °F 94% 30.00 in 10.0 mi WNW 5.8 mph - N/A   Scattered Clouds
12:53 AM 63.0 °F 63.0 °F 100% 29.97 in 10.0 mi WNW 4.6 mph - N/A   Scattered Clouds
1:07 AM 64.0 °F 63.0 °F 96% 30.00 in 10.0 mi WNW 5.8 mph - N/A   Mostly Cloudy
1:36 AM 63.0 °F 62.1 °F 97% 30.00 in 10.0 mi West 4.6 mph - N/A   Scattered Clouds
1:53 AM 63.0 °F 62.1 °F 97% 29.96 in 10.0 mi West 5.8 mph - N/A   Partly Cloudy
2:09 AM 62.1 °F 62.1 °F 100% 30.00 in 6.0 mi West 5.8 mph - N/A   Mostly Cloudy
2:49 AM 62.6 °F 62.6 °F 100% 30.01 in 2.5 mi West 3.5 mph - N/A   Overcast
2:53 AM 63.0 °F 63.0 °F 100% 29.99 in 2.0 mi West 4.6 mph - N/A   Overcast
3:01 AM 62.1 °F 62.1 °F 100% 30.01 in 1.8 mi NW 5.8 mph - N/A   Overcast
3:03 AM 62.1 °F 62.1 °F 100% 30.01 in 2.5 mi NW 5.8 mph - N/A   Mostly Cloudy
3:07 AM 62.1 °F 62.1 °F 100% 30.01 in 4.0 mi NNW 4.6 mph - N/A   Mostly Cloudy
3:18 AM 62.1 °F 62.1 °F 100% 30.01 in 2.5 mi Calm Calm - N/A   Mostly Cloudy
3:24 AM 61.0 °F 61.0 °F 100% 30.02 in 0.8 mi WSW 3.5 mph - N/A   Mostly Cloudy
3:37 AM 61.0 °F 61.0 °F 100% 30.02 in 0.2 mi Calm Calm - N/A Fog Fog
3:53 AM 61.0 °F 61.0 °F 100% 30.00 in 0.2 mi West 3.5 mph - N/A Fog Fog
4:53 AM 62.1 °F 62.1 °F 100% 30.01 in 0.2 mi West 4.6 mph - N/A Fog Fog
5:14 AM 61.0 °F 61.0 °F 100% 30.04 in 0.5 mi WNW 4.6 mph - N/A Fog Fog
5:29 AM 61.0 °F 61.0 °F 100% 30.04 in 1.0 mi Calm Calm - N/A   Overcast
5:37 AM 61.0 °F 60.1 °F 97% 30.04 in 0.8 mi Calm Calm - N/A   Overcast
5:50 AM 60.8 °F 60.8 °F 100% 30.04 in 0.2 mi Calm Calm - N/A Fog Fog
5:53 AM 61.0 °F 60.1 °F 97% 30.02 in 0.2 mi Calm Calm - N/A Fog Fog
6:03 AM 60.1 °F 60.1 °F 100% 30.05 in 0.2 mi West 3.5 mph - N/A Fog Fog
6:11 AM 60.1 °F 60.1 °F 100% 30.05 in 1.2 mi NW 3.5 mph - N/A   Mostly Cloudy
6:13 AM 60.1 °F 60.1 °F 100% 30.05 in 3.0 mi NW 4.6 mph - N/A   Mostly Cloudy
6:20 AM 61.0 °F 60.1 °F 97% 30.05 in 9.0 mi NNW 3.5 mph - N/A   Scattered Clouds
6:49 AM 60.8 °F 60.8 °F 100% 30.07 in 1.5 mi Calm Calm - N/A   Clear
6:53 AM 60.1 °F 60.1 °F 100% 30.05 in 0.5 mi Calm Calm - N/A Fog Fog
6:56 AM 60.1 °F 60.1 °F 100% 30.07 in 0.2 mi Calm Calm - N/A Fog Fog
7:12 AM 60.1 °F 60.1 °F 100% 30.08 in 1.0 mi NW 3.5 mph - N/A   Mostly Cloudy
7:16 AM 61.0 °F 60.1 °F 97% 30.08 in 3.0 mi Variable 3.5 mph - N/A   Mostly Cloudy
7:27 AM 61.0 °F 61.0 °F 100% 30.08 in 1.8 mi West 4.6 mph - N/A   Overcast
7:37 AM 61.0 °F 61.0 °F 100% 30.08 in 0.8 mi West 4.6 mph - N/A   Overcast
7:53 AM 61.0 °F 61.0 °F 100% 30.07 in 1.2 mi WSW 3.5 mph - N/A   Overcast
8:15 AM 61.0 °F 61.0 °F 100% 30.09 in 0.2 mi WSW 4.6 mph - N/A Fog Fog
8:30 AM 61.0 °F 61.0 °F 100% 30.09 in 1.0 mi West 5.8 mph - N/A   Mist
8:53 AM 62.1 °F 62.1 °F 100% 30.08 in 1.8 mi Calm Calm - N/A   Overcast
8:56 AM 62.1 °F 62.1 °F 100% 30.10 in 3.0 mi Calm Calm - N/A   Overcast
9:32 AM 64.9 °F 61.0 °F 87% 30.11 in 10.0 mi Calm Calm - N/A   Scattered Clouds
9:53 AM 66.9 °F 61.0 °F 81% 30.09 in 10.0 mi Calm Calm - N/A   Clear
10:53 AM 70.0 °F 60.1 °F 71% 30.10 in 10.0 mi Variable 4.6 mph - N/A   Clear
11:53 AM 72.0 °F 57.9 °F 61% 30.10 in 10.0 mi Variable 3.5 mph - N/A   Clear
12:53 PM 73.9 °F 57.0 °F 55% 30.09 in 10.0 mi NW 5.8 mph - N/A   Clear
1:53 PM 75.0 °F 57.0 °F 53% 30.09 in 10.0 mi Variable 4.6 mph - N/A   Clear
2:53 PM 75.0 °F 57.9 °F 55% 30.09 in 10.0 mi WSW 6.9 mph - N/A   Mostly Cloudy
3:53 PM 75.9 °F 57.9 °F 54% 30.08 in 10.0 mi Variable 4.6 mph - N/A   Partly Cloudy
4:53 PM 75.0 °F 57.0 °F 53% 30.08 in 10.0 mi SSW 8.1 mph - N/A   Clear
5:53 PM 73.9 °F 60.1 °F 62% 30.09 in 10.0 mi Calm Calm - N/A   Partly Cloudy
6:53 PM 73.0 °F 60.1 °F 64% 30.09 in 10.0 mi SW 3.5 mph - N/A   Clear
7:53 PM 66.9 °F 61.0 °F 81% 30.10 in 10.0 mi Calm Calm - N/A   Clear
8:53 PM 68.0 °F 59.0 °F 73% 30.11 in 10.0 mi Calm Calm - N/A   Clear
9:53 PM 66.0 °F 59.0 °F 78% 30.12 in 10.0 mi Calm Calm - N/A   Clear
10:53 PM 64.0 °F 60.1 °F 87% 30.13 in 10.0 mi East 4.6 mph - N/A   Clear
11:53 PM 63.0 °F 61.0 °F 93% 30.14 in 10.0 mi SE 4.6 mph - N/A   Clear